Home   Weather   Bismarck   Past weeks

Flag for USA Past Weather in Bismarck, North Dakota, USA — Yesterday and Last 2 Weeks

Now
25 °F

Passing clouds.


Feels Like: 25 °F
Forecast: 21 / 31 °F
Wind: No wind

Location: Bismarck Municipal Airport

Current Time: Jan 21, 2017 at 10:13:21 pm

Latest Report: Jan 21, 2017 at 8:52 pm


Visibility: 7 mi

Pressure: 29.61 "Hg (27.74 "Hg at 513m altitude)

Humidity: 92%

Dew Point: 23 °F

Location of BismarckLocation

Past Weather in Bismarck — Graph

°F

Bismarck Temperature Yesterday

Maximum temperature yesterday: 32 °F (at 4:33 pm)
Minimum temperature yesterday: 12 °F (at 12:32 am)
Average temperature yesterday: 27 °F

High & Low Weather Summary for the Past Weeks

 TemperatureHumidityPressure
High33 °F (Jan 17, 3:52 pm)96% (Jan 7, 9:52 am)30.81 "Hg (Jan 7, 9:52 am)
Low-25 °F (Jan 13, 1:52 am)53% (Jan 12, 11:52 am)29.32 "Hg (Jan 21, 12:37 am)
Average7 °F78%30.04 "Hg
* Reported Jan 6 8:52 pm — Jan 21 8:52 pm, Bismarck, Weather by CustomWeather, © 2017

Note: Actual official high and low records may vary slightly from our data, if they occured in-between our weather recording intervals... More about our weather records

Advertising

Bismarck Weather History for the Previous 24 Hours

Scroll right to see more
 ConditionsComfort  
Time TempWeatherWind HumidityBarometerVisibility
8:52 pm
Sat, Jan 21
25 °FPassing clouds.No wind92%29.61 "Hg7 mi
7:52 pm29 °FOvercast.No wind85%29.59 "Hg10 mi
6:52 pm29 °FOvercast.3 mph93%29.57 "Hg8 mi
5:52 pm30 °FMostly cloudy.3 mph92%29.54 "Hg8 mi
4:52 pm31 °FLow clouds.7 mph89%29.51 "Hg7 mi
3:52 pm32 °FLow clouds.3 mph88%29.48 "Hg8 mi
3:27 pm32 °FLow clouds.No wind88%29.42 "Hg7 mi
2:52 pm32 °FOvercast.3 mph88%29.46 "Hg7 mi
2:39 pm32 °FOvercast.5 mph85%29.40 "Hg3 mi
1:52 pm31 °FIce fog.6 mph89%29.45 "Hg3 mi
12:52 pm30 °FIce fog.5 mph89%29.44 "Hg3 mi
12:21 pm30 °FIce fog.7 mph89%29.38 "Hg3 mi
12:01 pm31 °FOvercast.6 mph85%29.38 "Hg3 mi
11:52 am30 °FLow clouds.6 mph89%29.44 "Hg3 mi
11:36 am30 °FMostly cloudy.5 mph89%29.39 "Hg3 mi
11:06 am29 °FLow clouds.5 mph89%29.38 "Hg3 mi
10:52 am29 °FIce fog.6 mph89%29.43 "Hg3 mi
10:35 am29 °FIce fog.3 mph89%29.37 "Hg3 mi
9:52 am28 °FIce fog.No wind89%29.41 "Hg3 mi
9:20 am28 °FIce fog.7 mph89%29.36 "Hg3 mi
8:52 am28 °FLight snow. Ice fog.6 mph93%29.40 "Hg1 mi
8:36 am28 °FLight snow. Ice fog.5 mph93%29.34 "Hg2 mi
8:04 am29 °FLight snow. Ice fog.7 mph93%29.34 "Hg2 mi
7:52 am29 °FLight snow. Ice fog.7 mph93%29.39 "Hg5 mi
7:16 am29 °FIce fog.6 mph93%29.34 "Hg6 mi
6:52 am30 °FIce fog.5 mph89%29.38 "Hg6 mi
5:52 am30 °FIce fog.6 mph92%29.37 "Hg5 mi
4:52 am30 °FLow clouds.3 mph92%29.37 "Hg8 mi
4:02 am30 °FIce fog.5 mph96%29.32 "Hg5 mi
3:52 am31 °FIce fog.5 mph92%29.37 "Hg4 mi
2:52 am31 °FIce fog.6 mph96%29.38 "Hg4 mi
2:15 am31 °FIce fog.7 mph96%29.32 "Hg2 mi
1:52 am31 °FIce fog.6 mph96%29.37 "Hg3 mi
12:52 am32 °FIce fog.5 mph92%29.37 "Hg3 mi
12:37 am32 °FIce fog.5 mph92%29.32 "Hg3 mi
12:06 am32 °FIce fog.6 mph92%29.33 "Hg2 mi
11:52 pm
Fri, Jan 20
32 °FIce fog.6 mph92%29.39 "Hg2 mi
11:33 pm32 °FIce fog.5 mph92%29.34 "Hg2 mi
11:21 pm32 °FIce fog.5 mph92%29.34 "Hg2 mi
11:06 pm32 °FIce fog.3 mph92%29.33 "Hg2 mi
10:52 pm32 °FIce fog.3 mph96%29.39 "Hg2 mi
Weather by CustomWeather, © 2017

See weather overviewHow to use our weather pages